Location: Denver
(39.7392°N, 104.9903°W)
Time: 05:32:52
(UTC-06:00)

ISS - Visible Passes

Search period start: 23 July 2018 00:00
Search period end: 02 August 2018 00:00
Orbit: 402 x 408 km, 51.6° (Epoch: 23 July)

Date Brightness Start Highest point End Pass type
(mag) Time Alt. Az. Time Alt. Az. Time Alt. Az.
23 Jul -0.4 01:01:34 10° NNW 01:02:58 12° N 01:03:28 12° NNE visible
23 Jul -3.0 20:52:39 10° WSW 20:55:51 56° NW 20:59:04 10° NE visible
23 Jul -0.6 22:31:01 10° NW 22:32:54 14° NNW 22:34:48 10° NNE visible
24 Jul -0.4 00:09:40 10° N 00:10:31 11° N 00:11:23 10° NNE visible
24 Jul -0.9 21:38:06 10° WNW 21:40:31 19° NNW 21:42:57 10° NNE visible
24 Jul -0.4 23:17:22 10° NNW 23:18:02 10° N 23:18:42 10° N visible
25 Jul -0.4 00:53:25 10° NNW 00:53:53 12° NNW 00:53:53 12° NNW visible
25 Jul -0.5 22:24:28 10° NNW 22:25:32 11° N 22:26:38 10° NNE visible
26 Jul -0.6 00:01:33 10° NNW 00:03:10 13° NNE 00:03:10 13° NNE visible
26 Jul -0.7 21:31:24 10° NW 21:33:04 13° NNW 21:34:44 10° NNE visible
26 Jul -0.6 23:09:40 10° NNW 23:10:42 11° N 23:11:44 10° NNE visible
27 Jul -0.5 22:17:33 10° N 22:18:10 10° N 22:18:49 10° NNE visible
27 Jul -0.7 23:53:19 10° NNW 23:54:33 16° N 23:54:33 16° N visible
28 Jul -0.6 21:24:46 10° NNW 21:25:38 11° N 21:26:31 10° N visible
28 Jul -1.0 23:01:26 10° NNW 23:03:16 14° NNE 23:03:58 13° NNE visible
29 Jul -0.8 22:09:31 10° NNW 22:10:46 12° N 22:11:59 10° NNE visible
29 Jul -0.8 23:45:05 10° NW 23:46:03 16° NNW 23:46:03 16° NNW visible
30 Jul -0.7 21:17:29 10° N 21:18:12 10° N 21:18:55 10° NNE visible
30 Jul -1.5 22:53:07 10° NNW 22:55:31 20° NNE 22:55:31 20° NNE visible
31 Jul -1.2 22:01:11 10° NNW 22:03:13 15° NNE 22:05:00 11° NE visible
31 Jul -0.8 23:36:56 10° NW 23:37:39 15° NW 23:37:39 15° NW visible
01 Aug -1.0 21:09:15 10° NNW 21:10:41 12° NNE 21:12:08 10° NE visible
01 Aug -2.1 22:44:50 10° NW 22:47:09 31° N 22:47:09 31° N visible
